DELTA 1 DEB, 10710

Orbit data source: Space-Track

DELTA 1 DEB, 10710 is space debris in LEO originally from a launch on Thu, 29 Jul 1976 UTC launched from the Air Force Western Test Range (AFWTR). Debris objects in space refer to the collection of defunct objects orbiting the Earth. Examples of debris include non-operational satellites, rocket bodies, and fragments generated from explosions, collisions, or faulty payload assembly.

Loading next visibility...
Identifier
10710, 1976-077AF
Orbit
LEO
Country
Flag of USUS
Related business
Manufacturer
Unknown
Mission
Spacecraft
Bus & Motor
Unknown
Mass
Unknown
Launch date (UTC)
1976-07-29 (50 years ago)
Launch vehicle
Unknown
Launch site
Air Force Western Test Range (AFWTR)
Object type
Payload
Rocket body
Debris
Shape & HBR
Unknown shape, 0.1 m
Radar Cross Section
Small (<0.1 m²)

Expand to show TLE details & history
Last TLE update: 2 days ago

TLE from 2 days ago
0 DELTA 1 DEB
1 10710U 76077AF  26105.91809620  .00000078  00000-0  13027-2 0  9995
2 10710 101.7864 266.7803 0273935 161.3677 352.6492 11.99361337145318
Epoch: 2026-04-15T22:02Z
TLE epoch observation values (Epoch: 2026-04-15T22:02:03.511Z)
Latitude
25.8337°
Longitude
-82.03806°
Altitude
1,467.544 km
Speed
7.227 km/s
True Right ascension
06h 10m 11s
True Declination
25° 42' 41"
Sunlit
Object was in daylight at epoch
Visualization orbit readout
Latitude
Unknown
Longitude
Unknown
Altitude
Unknown
Speed
Unknown
Apparent Right ascension
Unknown
Apparent Declination
Unknown
Sunlit
N/A
Visualization observer readout
Local Sidereal Time
01:29:34
Azimuth
Unknown
Elevation
Unknown
Doppler factor
Unknown
Orbital elements
Apogee altitude
1,902.111 km
Perigee altitude
1,460.557 km
Semi-major axis
8,059.471 km
Eccentricity
0.02739
Inclination
101.7864°
RAAN
266.7803°
Arg. of periapsis
161.3677°
True anomaly
352.23348°
Mean anomaly
352.6492°
Eccentric anomaly
352.44278°
Mean motion
2.99974 °/min
Orbital period
120.01 mins
BSTAR
0.0013027
Loading maneuver chart data...
Computing Atmospheric mass density...
Loading historical data...
Loading historical data...
Loading historical data...
Loading historical data...
Loading historical data...
Loading historical data...
Loading historical data...

Documentation

Showing up to 5 results
|